Le nostre stazioni meteo in Italia

Pubblicità
Il mio iltempo24.it
Parma, Italia (16086): Temperatura & dewpoint: 19.01.2020 06:00:00 - 25.01.2020 06:00:00 (CET)Parma, Italia (16086): velocità del vento: 19.01.2020 06:00:00 - 25.01.2020 06:00:00 (CET)Parma, Italia (16086): direzione del vento: 19.01.2020 06:00:00 - 25.01.2020 06:00:00 (CET)Parma, Italia (16086): reduced air pressure: 19.01.2020 06:00:00 - 25.01.2020 06:00:00 (CET)Parma, Italia (16086): precipitazioni: 19.01.2020 06:00:00 - 25.01.2020 06:00:00 (CET)
Data & Tempo tt [°C] td [°C] ff [km/h] ff [kn] dd ppp [hPa] rr [mm]
25.01.2020 06:00:00 - - - - - - -
25.01.2020 05:00:00 4,3 2,8 4 2 OSO 1026,1 0,0
25.01.2020 04:00:00 4,4 2,7 4 2 OSO 1026,5 0,0
25.01.2020 03:00:00 4,5 2,4 2 1 O 1026,9 0,0
25.01.2020 02:00:00 4,9 2,1 3 2 ONO 1027,1 0,0
25.01.2020 01:00:00 5,1 1,9 3 1 NO 1027,4 0,0
25.01.2020 00:00:00 5,4 1,7 1 0 NNE 1027,6 0,0
24.01.2020 23:00:00 5,3 - 2 1 NNE 1027,6 0,0
24.01.2020 22:00:00 5,6 - 4 2 E - -
24.01.2020 21:00:00 5,6 1,7 6 3 ENE 1027,8 0,0
24.01.2020 20:00:00 5,9 1,8 6 3 ENE 1027,7 0,0
24.01.2020 19:00:00 6,4 1,7 7 4 ENE 1027,3 0,0
24.01.2020 18:00:00 6,7 1,8 6 3 ENE 1027,5 0,0
24.01.2020 17:00:00 7,2 2,1 6 3 ENE 1027,1 0,0
24.01.2020 16:00:00 7,5 2,2 5 3 ENE 1027,2 0,0
24.01.2020 15:00:00 7,7 1,3 5 3 ENE 1027,4 0,0
24.01.2020 14:00:00 7,3 1,4 5 3 NNE 1027,9 0,0
24.01.2020 13:00:00 7,5 0,7 4 2 NNE 1028,5 0,0
24.01.2020 12:00:00 6,8 0,0 4 2 NNE 1029,1 0,0
24.01.2020 11:00:00 5,2 -0,6 5 3 S 1029,6 0,0
24.01.2020 10:00:00 4,4 -1,0 5 3 S 1029,3 0,0
24.01.2020 09:00:00 3,6 -1,0 4 2 S 1029,4 0,0
24.01.2020 08:00:00 3,1 -0,9 5 3 SSO 1029,1 0,0
24.01.2020 07:00:00 2,2 -1,2 6 3 SO 1029,0 0,0
24.01.2020 06:00:00 2,1 -1,5 6 3 SO 1028,7 0,0
24.01.2020 05:00:00 1,9 -1,7 8 4 SO 1028,9 0,0
24.01.2020 04:00:00 2,1 -1,5 5 3 OSO 1029,3 0,0
24.01.2020 03:00:00 2,6 -1,2 8 4 SO 1029,8 0,0
24.01.2020 02:00:00 2,7 -0,9 6 4 SO 1030,2 0,0
24.01.2020 01:00:00 2,6 -1,0 7 4 SO 1030,6 0,0
24.01.2020 00:00:00 3,1 -0,9 6 3 SO 1031,1 0,0
23.01.2020 23:00:00 3,3 -0,5 8 4 SO 1031,4 0,0
23.01.2020 22:00:00 3,7 0,0 4 2 OSO 1031,6 0,0
23.01.2020 21:00:00 4,1 0,8 6 3 OSO 1031,8 0,0
23.01.2020 20:00:00 5,4 1,7 - - - 1031,5 0,0
23.01.2020 19:00:00 5,9 1,6 1 1 ENE 1031,3 0,0
23.01.2020 18:00:00 6,3 1,8 - - - - -
23.01.2020 17:00:00 7,3 1,6 4 2 NE 1030,9 0,0
23.01.2020 16:00:00 8,0 1,6 6 3 ENE 1031,1 0,0
23.01.2020 15:00:00 8,7 0,4 6 3 NE 1031,3 0,0
23.01.2020 14:00:00 8,1 -0,2 7 4 E 1031,6 0,0
23.01.2020 13:00:00 7,2 0,6 6 3 E 1032,8 0,0
23.01.2020 12:00:00 5,8 0,1 8 4 NE 1033,4 0,0
23.01.2020 11:00:00 4,2 0,0 4 2 NNE 1034,0 0,0
23.01.2020 10:00:00 3,2 -0,6 6 3 N 1033,5 0,0
23.01.2020 09:00:00 2,2 -1,2 - - - 1033,1 0,0
23.01.2020 08:00:00 0,8 -1,3 2 1 SSO 1032,6 0,0
23.01.2020 07:00:00 0,8 -1,3 1 1 SSO 1032,0 0,0
23.01.2020 06:00:00 1,7 -0,9 - - - 1031,4 -
23.01.2020 05:00:00 2,9 -0,9 0 0 S 1031,4 0,0
23.01.2020 04:00:00 2,7 -1,1 - - - 1031,5 0,0
23.01.2020 03:00:00 2,2 -0,9 7 4 SE 1031,8 0,0
23.01.2020 02:00:00 1,7 -0,7 6 3 E 1031,6 0,0
23.01.2020 01:00:00 5,1 -0,3 2 1 SSO 1031,1 0,0
23.01.2020 00:00:00 4,8 -0,6 7 4 SSO 1031,1 0,0
22.01.2020 23:00:00 4,9 -0,5 5 3 SSO 1031,3 0,0
22.01.2020 22:00:00 5,6 -0,5 6 3 S 1031,5 0,0
22.01.2020 21:00:00 5,8 0,1 2 1 S 1031,5 0,0
22.01.2020 20:00:00 6,8 -0,9 0 0 O 1031,7 0,0
22.01.2020 19:00:00 7,3 -0,7 1 1 O 1031,3 0,0
22.01.2020 18:00:00 7,7 -0,8 - - - 1031,4 0,0
22.01.2020 17:00:00 8,4 -1,2 4 2 OSO 1031,6 0,0
22.01.2020 16:00:00 9,2 -1,5 4 2 NO 1032,2 0,0
22.01.2020 15:00:00 9,1 -2,2 3 2 NO 1032,7 0,0
22.01.2020 14:00:00 8,9 -4,7 3 1 O 1033,6 0,0
22.01.2020 13:00:00 7,5 -4,0 5 3 OSO 1034,9 0,0
22.01.2020 12:00:00 5,3 -3,0 6 3 SO 1036,3 0,0
22.01.2020 11:00:00 3,0 -2,1 4 2 O 1037,0 0,0
22.01.2020 10:00:00 3,3 -1,8 5 3 O 1037,3 0,0
22.01.2020 09:00:00 2,9 -2,4 6 4 SO 1037,1 0,0
22.01.2020 08:00:00 2,7 -2,4 6 3 SO 1037,1 0,0
22.01.2020 07:00:00 2,4 -2,3 6 3 SO 1037,3 0,0
22.01.2020 06:00:00 2,4 -2,3 5 3 SO 1037,5 0,0
22.01.2020 05:00:00 2,7 -2,0 6 3 SO 1038,0 0,2
22.01.2020 04:00:00 2,5 -1,7 5 3 OSO 1038,3 0,0
22.01.2020 03:00:00 2,3 -1,5 6 3 SO 1039,1 0,0
22.01.2020 02:00:00 2,7 -1,8 4 2 O 1039,2 0,0
22.01.2020 01:00:00 2,9 -1,5 5 3 OSO 1039,6 0,0
22.01.2020 00:00:00 3,3 -1,1 8 4 SO 1040,0 0,0
21.01.2020 23:00:00 3,5 0,0 4 2 SSO 1040,5 0,0
21.01.2020 22:00:00 3,4 -0,1 5 3 SO 1040,7 0,0
21.01.2020 21:00:00 4,3 0,8 5 3 OSO 1040,7 0,0
21.01.2020 20:00:00 5,1 0,8 2 1 NO 1040,8 0,0
21.01.2020 19:00:00 5,5 0,7 - - - 1040,8 0,0
21.01.2020 18:00:00 5,9 0,6 2 1 NO 1040,7 0,0
21.01.2020 17:00:00 6,3 0,6 - - - 1040,7 0,0
21.01.2020 16:00:00 6,6 0,5 3 2 N 1041,1 0,0
21.01.2020 15:00:00 6,7 0,2 3 2 ONO 1041,6 0,0
21.01.2020 14:00:00 6,9 -0,1 3 1 NNO 1042,0 0,0
21.01.2020 13:00:00 6,2 -0,3 3 2 NNO 1043,1 0,0
21.01.2020 12:00:00 5,3 -0,5 3 1 O 1044,0 0,0
21.01.2020 11:00:00 4,5 -1,1 4 2 O 1044,5 0,0
21.01.2020 10:00:00 3,0 -1,2 5 3 OSO 1044,4 0,0
21.01.2020 09:00:00 2,1 - 4 2 OSO - -
21.01.2020 08:00:00 1,3 -1,3 5 3 SO 1044,4 0,0
21.01.2020 07:00:00 1,6 -1,1 5 3 OSO 1044,4 0,0
21.01.2020 06:00:00 1,9 -1,0 3 2 SO 1044,5 0,0
21.01.2020 05:00:00 2,2 -1,1 3 2 SO 1044,6 0,0
21.01.2020 04:00:00 2,7 -1,1 4 2 SSO 1045,0 0,0
21.01.2020 03:00:00 3,3 -1,3 4 2 OSO 1045,6 0,0
21.01.2020 02:00:00 3,4 -1,4 6 3 O 1045,8 0,0
21.01.2020 01:00:00 3,5 -1,3 4 2 O 1046,0 0,0
21.01.2020 00:00:00 4,4 -0,8 3 1 N 1046,0 0,0
20.01.2020 23:00:00 4,8 -0,8 2 1 NE 1045,8 0,0
20.01.2020 22:00:00 5,2 -1,5 1 1 NNE 1045,4 0,0
20.01.2020 21:00:00 5,5 -1,4 4 2 E 1044,8 0,0
20.01.2020 20:00:00 5,8 -1,4 3 2 E 1044,4 0,0
20.01.2020 19:00:00 5,9 -1,5 4 2 NNE 1043,7 0,0
20.01.2020 18:00:00 6,8 -2,1 10 5 E 1043,0 0,0
20.01.2020 17:00:00 7,6 -2,4 8 4 E 1042,4 0,0
20.01.2020 16:00:00 8,8 -2,5 12 7 ENE 1042,2 0,0
20.01.2020 15:00:00 8,4 -0,4 9 5 ENE 1042,0 0,0
20.01.2020 14:00:00 8,2 -0,6 6 3 E 1042,4 0,0
20.01.2020 13:00:00 7,7 -0,8 6 4 E 1042,7 0,0
20.01.2020 12:00:00 6,9 -0,6 6 3 ENE 1043,0 0,0
20.01.2020 11:00:00 6,1 -1,1 6 4 ENE 1043,1 0,0
20.01.2020 10:00:00 4,7 1,7 3 1 O 1042,3 0,0
20.01.2020 09:00:00 3,4 1,6 4 2 SO 1041,6 0,2
20.01.2020 08:00:00 3,0 1,5 1 1 SSO 1040,6 0,0
20.01.2020 07:00:00 3,6 1,3 2 1 NO 1040,1 0,0
20.01.2020 06:00:00 3,2 1,6 3 2 O 1039,3 0,0
20.01.2020 05:00:00 3,3 1,8 1 1 SSO 1038,8 0,0
20.01.2020 04:00:00 3,2 1,9 4 2 SO 1038,3 0,0
20.01.2020 03:00:00 3,6 2,0 2 1 O 1038,1 0,0
20.01.2020 02:00:00 4,1 2,3 1 1 SSO 1037,4 0,0
20.01.2020 01:00:00 4,1 2,3 3 2 SSO 1036,9 0,0
20.01.2020 00:00:00 4,2 2,4 5 3 SO 1036,2 0,0
19.01.2020 23:00:00 3,9 2,6 8 4 SO 1035,8 0,0
19.01.2020 22:00:00 4,4 3,2 6 4 OSO 1035,1 0,0
19.01.2020 21:00:00 4,7 3,5 5 3 OSO 1034,5 0,0
19.01.2020 20:00:00 4,7 3,4 5 3 OSO 1033,8 0,0
19.01.2020 19:00:00 4,9 3,2 5 3 O 1032,7 0,0
19.01.2020 18:00:00 5,4 3,7 2 1 ONO 1032,0 0,0
19.01.2020 17:00:00 6,1 4,1 6 3 NO 1031,3 0,0
19.01.2020 16:00:00 6,6 4,1 5 3 OSO 1030,6 0,0
19.01.2020 15:00:00 5,9 4,1 7 4 OSO 1029,9 0,0
19.01.2020 14:00:00 5,6 4,4 6 3 OSO 1029,9 0,0
19.01.2020 13:00:00 5,1 4,1 5 3 O 1029,8 0,0
19.01.2020 12:00:00 4,2 3,5 6 3 O 1029,8 0,0
19.01.2020 11:00:00 4,3 3,7 4 2 NO 1029,5 0,0
19.01.2020 10:00:00 4,0 3,3 6 3 O 1028,4 0,0
19.01.2020 09:00:00 4,1 - - - - - -
19.01.2020 08:00:00 4,5 3,6 4 2 O 1027,2 0,0
19.01.2020 07:00:00 4,5 - - - - 1026,7 -
19.01.2020 06:00:00 4,4 3,8 5 3 OSO 1026,3 0,0

tt = Temperatura
td = dewpoint
ff = velocità del vento
dd = direzione del vento
ppp = reduced air pressure
rr = precipitazioni

Stazioni seguenti

WeatherPro
AMSI
MeteoEarth